�������l�o���
Date,Time,MP-1(��Sv/h),MP-2(��Sv/h),MP-3(��Sv/h),MP-4(��Sv/h),MP-5(��Sv/h),MP-6(��Sv/h),MP-7(��Sv/h),MP-8(��Sv/h),����,����(m/s),���J
2018/02/24,00:00,0.885,1.492,0.931,1.747,1.205,0.486,0.869,0.835,�k��,5.8,��
2018/02/24,00:10,0.885,1.491,0.931,1.746,1.206,0.487,0.868,0.836,�k��,5.3,��
2018/02/24,00:20,0.886,1.492,0.932,1.747,1.203,0.489,0.867,0.836,���k��,4.2,��
2018/02/24,00:30,0.886,1.494,0.930,1.745,1.206,0.486,0.869,0.835,�k��,2.5,��
2018/02/24,00:40,0.885,1.494,0.932,1.746,1.205,0.486,0.868,0.835,���k��,4.1,��
2018/02/24,00:50,0.885,1.490,0.931,1.746,1.203,0.487,0.867,0.836,�k�k��,3.2,��
2018/02/24,01:00,0.884,1.490,0.929,1.744,1.205,0.488,0.868,0.836,�k�k��,2.6,��
2018/02/24,01:10,0.882,1.490,0.928,1.743,1.206,0.487,0.866,0.836,�k��,3.0,��
2018/02/24,01:20,0.885,1.491,0.929,1.747,1.205,0.485,0.869,0.835,�k��,3.9,��
2018/02/24,01:30,0.884,1.490,0.930,1.747,1.206,0.484,0.868,0.834,�k�k��,3.8,��
2018/02/24,01:40,0.886,1.489,0.929,1.747,1.206,0.486,0.868,0.836,�k��,4.0,��
2018/02/24,01:50,0.884,1.488,0.928,1.746,1.203,0.486,0.865,0.836,�k��,4.0,��
2018/02/24,02:00,0.883,1.489,0.928,1.746,1.204,0.487,0.865,0.837,�k��,5.3,��
2018/02/24,02:10,0.884,1.488,0.929,1.743,1.203,0.486,0.865,0.835,�k��,3.9,��
2018/02/24,02:20,0.882,1.490,0.928,1.742,1.205,0.485,0.868,0.836,�k��,4.9,��
2018/02/24,02:30,0.882,1.488,0.930,1.744,1.201,0.486,0.867,0.835,���k��,3.0,��
2018/02/24,02:40,0.883,1.490,0.929,1.744,1.204,0.485,0.865,0.834,���k��,2.0,��
2018/02/24,02:50,0.881,1.492,0.928,1.744,1.206,0.485,0.866,0.835,���k��,5.1,��
2018/02/24,03:00,0.882,1.490,0.929,1.747,1.203,0.487,0.866,0.836,���k��,4.5,��
2018/02/24,03:10,0.882,1.489,0.928,1.742,1.204,0.486,0.866,0.835,���k��,3.9,��
2018/02/24,03:20,0.882,1.492,0.930,1.745,1.203,0.484,0.864,0.835,���k��,3.1,��
2018/02/24,03:30,0.881,1.490,0.927,1.745,1.202,0.485,0.865,0.834,��,2.0,��
2018/02/24,03:40,0.882,1.488,0.927,1.747,1.202,0.486,0.867,0.833,��,2.0,��
2018/02/24,03:50,0.881,1.491,0.927,1.747,1.202,0.486,0.866,0.834,��,2.0,��
2018/02/24,04:00,0.882,1.489,0.929,1.744,1.204,0.485,0.865,0.835,���쐼,1.1,��
2018/02/24,04:10,0.882,1.489,0.928,1.744,1.204,0.484,0.866,0.835,��,1.7,��
2018/02/24,04:20,0.883,1.488,0.927,1.742,1.202,0.487,0.866,0.834,���쐼,2.2,��
2018/02/24,04:30,0.882,1.489,0.927,1.743,1.201,0.485,0.865,0.836,���쐼,2.6,��
2018/02/24,04:40,0.881,1.488,0.927,1.746,1.203,0.486,0.866,0.835,�쐼,3.3,��
2018/02/24,04:50,0.879,1.490,0.928,1.741,1.204,0.485,0.866,0.835,���쐼,3.2,��
2018/02/24,05:00,0.881,1.491,0.928,1.742,1.202,0.485,0.864,0.835,���쐼,3.2,��
2018/02/24,05:10,0.882,1.488,0.927,1.743,1.204,0.486,0.865,0.836,���쐼,3.2,��
2018/02/24,05:20,0.880,1.488,0.926,1.743,1.205,0.485,0.864,0.834,��,3.2,��
2018/02/24,05:30,0.884,1.487,0.928,1.742,1.201,0.485,0.866,0.836,��,5.2,��
2018/02/24,05:40,0.882,1.487,0.929,1.742,1.204,0.485,0.865,0.836,��,5.3,��
2018/02/24,05:50,0.879,1.490,0.929,1.743,1.202,0.486,0.867,0.835,��,6.6,��
2018/02/24,06:00,0.882,1.490,0.929,1.745,1.200,0.485,0.867,0.834,��,7.7,��
2018/02/24,06:10,0.882,1.486,0.927,1.745,1.202,0.484,0.864,0.835,��,7.2,��
2018/02/24,06:20,0.881,1.487,0.928,1.744,1.203,0.485,0.866,0.835,��,7.5,��
2018/02/24,06:30,0.881,1.490,0.926,1.741,1.201,0.485,0.867,0.835,���k��,7.0,��
2018/02/24,06:40,0.882,1.489,0.928,1.743,1.202,0.485,0.868,0.836,���k��,5.7,��
2018/02/24,06:50,0.881,1.488,0.927,1.745,1.204,0.484,0.866,0.835,��,4.6,��
2018/02/24,07:00,0.882,1.489,0.927,1.741,1.204,0.484,0.865,0.833,��,2.5,��
2018/02/24,07:10,0.881,1.489,0.930,1.744,1.204,0.486,0.866,0.836,���k��,2.6,��
2018/02/24,07:20,0.881,1.491,0.927,1.746,1.206,0.485,0.866,0.835,���k��,1.5,��
2018/02/24,07:30,0.883,1.488,0.927,1.742,1.202,0.486,0.866,0.834,�k�k��,1.1,��
2018/02/24,07:40,0.885,1.488,0.927,1.744,1.204,0.484,0.867,0.836,�k�k��,1.7,��
2018/02/24,07:50,0.884,1.489,0.930,1.745,1.203,0.485,0.866,0.836,�k�k��,3.5,��
2018/02/24,08:00,0.885,1.488,0.929,1.746,1.203,0.486,0.869,0.837,���k��,1.9,��
2018/02/24,08:10,0.883,1.490,0.931,1.746,1.201,0.486,0.866,0.838,�쓌,1.7,��
2018/02/24,08:20,0.885,1.490,0.929,1.745,1.205,0.485,0.868,0.836,�쓌,2.9,��
2018/02/24,08:30,0.885,1.492,0.929,1.746,1.202,0.487,0.870,0.836,��쓌,3.9,��
2018/02/24,08:40,0.885,1.492,0.932,1.746,1.204,0.488,0.870,0.836,��쓌,4.1,��
2018/02/24,08:50,0.886,1.491,0.931,1.748,1.205,0.485,0.869,0.835,��쓌,5.8,��
2018/02/24,09:00,0.884,1.488,0.932,1.747,1.205,0.486,0.871,0.837,��쓌,9.1,��
2018/02/24,09:10,0.885,1.489,0.929,1.749,1.204,0.488,0.869,0.837,��쓌,10.8,��
2018/02/24,09:20,0.887,1.489,0.930,1.750,1.204,0.487,0.869,0.839,��쓌,9.7,��
2018/02/24,09:30,0.887,1.490,0.931,1.745,1.206,0.488,0.867,0.838,��,10.5,��
2018/02/24,09:40,0.888,1.488,0.932,1.749,1.206,0.487,0.868,0.837,��,10.8,��
2018/02/24,09:50,0.889,1.489,0.932,1.747,1.207,0.488,0.869,0.838,��쐼,11.0,��
2018/02/24,10:00,0.887,1.492,0.932,1.748,1.206,0.489,0.869,0.837,��,13.5,��
2018/02/24,10:10,0.890,1.492,0.931,1.750,1.206,0.489,0.868,0.837,��,11.4,��
2018/02/24,10:20,0.889,1.491,0.932,1.748,1.207,0.488,0.868,0.836,��,11.3,��
2018/02/24,10:30,0.891,1.494,0.933,1.750,1.207,0.487,0.869,0.839,��,12.0,��
2018/02/24,10:40,0.890,1.490,0.934,1.751,1.207,0.490,0.868,0.837,��,13.1,��
2018/02/24,10:50,0.889,1.493,0.936,1.749,1.208,0.489,0.868,0.837,��,12.4,��
2018/02/24,11:00,0.890,1.494,0.933,1.753,1.210,0.489,0.867,0.839,��,12.4,��
2018/02/24,11:10,0.891,1.495,0.936,1.749,1.210,0.490,0.867,0.838,��,12.1,��
2018/02/24,11:20,0.888,1.493,0.934,1.751,1.207,0.489,0.869,0.839,��,14.1,��
2018/02/24,11:30,0.891,1.493,0.936,1.752,1.208,0.491,0.870,0.837,��쓌,13.0,��
2018/02/24,11:40,0.888,1.492,0.934,1.751,1.209,0.490,0.870,0.839,��쓌,11.6,��
2018/02/24,11:50,0.891,1.492,0.933,1.750,1.209,0.490,0.868,0.838,��,10.2,��
2018/02/24,12:00,0.890,1.497,0.932,1.755,1.209,0.490,0.868,0.837,��쓌,13.8,��
2018/02/24,12:10,0.890,1.494,0.935,1.752,1.208,0.490,0.867,0.838,��쓌,10.5,��
2018/02/24,12:20,0.892,1.495,0.935,1.753,1.209,0.491,0.867,0.838,��,9.5,��
2018/02/24,12:30,0.892,1.498,0.935,1.752,1.210,0.490,0.870,0.841,��,7.1,�L
2018/02/24,12:40,0.892,1.499,0.935,1.752,1.209,0.491,0.869,0.839,�쐼,6.6,�L
2018/02/24,12:50,0.893,1.498,0.937,1.752,1.210,0.490,0.870,0.838,���쐼,6.1,��
2018/02/24,13:00,0.896,1.500,0.935,1.754,1.213,0.492,0.871,0.839,�쐼,7.7,��
2018/02/24,13:10,0.893,1.501,0.938,1.754,1.211,0.493,0.870,0.839,�쐼,9.3,��
2018/02/24,13:20,0.895,1.498,0.938,1.756,1.213,0.493,0.870,0.838,���쐼,8.7,��
2018/02/24,13:30,0.893,1.496,0.935,1.753,1.212,0.492,0.870,0.840,��,9.8,�L
2018/02/24,13:40,0.894,1.498,0.937,1.756,1.208,0.492,0.872,0.841,���쐼,9.2,�L
2018/02/24,13:50,0.893,1.496,0.937,1.755,1.211,0.492,0.870,0.836,���쐼,10.3,�L
2018/02/24,14:00,0.893,1.497,0.935,1.756,1.210,0.490,0.870,0.837,��,10.0,�L
2018/02/24,14:10,0.893,1.496,0.938,1.754,1.209,0.490,0.870,0.836,���k��,9.7,��
2018/02/24,14:20,0.895,1.497,0.938,1.754,1.210,0.493,0.868,0.834,�k��,5.1,�L
2018/02/24,14:30,0.892,1.496,0.937,1.757,1.210,0.492,0.870,0.835,�k��,6.4,��
2018/02/24,14:40,0.894,1.493,0.937,1.757,1.211,0.491,0.868,0.836,�k��,10.6,�L
2018/02/24,14:50,0.892,1.496,0.937,1.754,1.211,0.491,0.868,0.834,���k��,8.7,�L
2018/02/24,15:00,0.894,1.493,0.937,1.756,1.204,0.492,0.868,0.835,��,10.0,�L
2018/02/24,15:10,0.894,1.494,0.938,1.754,1.209,0.495,0.868,0.837,���쐼,8.6,�L
2018/02/24,15:20,0.895,1.495,0.936,1.758,1.208,0.495,0.871,0.839,���쐼,5.3,��
2018/02/24,15:30,0.895,1.497,0.937,1.754,1.208,0.492,0.870,0.839,���쐼,5.4,��
2018/02/24,15:40,0.897,1.501,0.936,1.756,1.212,0.495,0.872,0.842,��,7.7,��
2018/02/24,15:50,0.893,1.496,0.939,1.757,1.211,0.492,0.872,0.838,��,6.9,��
2018/02/24,16:00,0.895,1.501,0.936,1.753,1.213,0.492,0.872,0.838,��,6.7,��
2018/02/24,16:10,0.893,1.498,0.936,1.753,1.211,0.491,0.870,0.839,��,6.3,��
2018/02/24,16:20,0.889,1.499,0.936,1.756,1.210,0.492,0.872,0.840,��,7.0,��
2018/02/24,16:30,0.892,1.498,0.934,1.754,1.209,0.491,0.869,0.840,��,6.5,��
2018/02/24,16:40,0.891,1.497,0.934,1.754,1.209,0.490,0.869,0.840,��,6.4,��
2018/02/24,16:50,0.890,1.496,0.937,1.752,1.207,0.488,0.868,0.837,���k��,6.3,��
2018/02/24,17:00,0.891,1.496,0.935,1.752,1.210,0.489,0.870,0.838,���k��,6.1,��
2018/02/24,17:10,0.890,1.498,0.934,1.750,1.206,0.490,0.873,0.838,��,7.2,��
2018/02/24,17:20,0.888,1.497,0.934,1.748,1.209,0.487,0.870,0.838,���k��,6.7,��
2018/02/24,17:30,0.891,1.495,0.933,1.749,1.208,0.489,0.871,0.839,��,6.7,��
2018/02/24,17:40,0.889,1.497,0.933,1.750,1.207,0.489,0.870,0.837,���k��,6.1,��
2018/02/24,17:50,0.887,1.495,0.933,1.752,1.207,0.490,0.869,0.838,���k��,6.6,��
2018/02/24,18:00,0.887,1.494,0.931,1.751,1.210,0.488,0.869,0.838,�k��,7.4,��
2018/02/24,18:10,0.888,1.494,0.932,1.752,1.207,0.488,0.867,0.837,�k��,7.0,��
2018/02/24,18:20,0.886,1.493,0.934,1.749,1.206,0.489,0.869,0.837,���k��,6.4,��
2018/02/24,18:30,0.884,1.493,0.933,1.749,1.206,0.489,0.870,0.838,���k��,5.4,��
2018/02/24,18:40,0.887,1.491,0.930,1.750,1.209,0.487,0.869,0.838,���k��,5.7,��
2018/02/24,18:50,0.887,1.495,0.930,1.750,1.206,0.488,0.868,0.837,���k��,6.1,��
2018/02/24,19:00,0.887,1.495,0.930,1.750,1.205,0.490,0.870,0.836,��,5.7,��
2018/02/24,19:10,0.885,1.494,0.932,1.749,1.206,0.486,0.868,0.837,���k��,5.5,��
2018/02/24,19:20,0.887,1.493,0.931,1.750,1.203,0.489,0.868,0.836,���k��,7.5,��
2018/02/24,19:30,0.886,1.494,0.932,1.750,1.205,0.487,0.869,0.836,���쐼,5.3,��
2018/02/24,19:40,0.886,1.493,0.931,1.748,1.209,0.487,0.868,0.836,���쐼,4.4,��
2018/02/24,19:50,0.885,1.494,0.930,1.746,1.204,0.487,0.868,0.838,���k��,3.1,��
2018/02/24,20:00,0.885,1.493,0.928,1.747,1.205,0.487,0.868,0.836,�k�k��,3.7,��
2018/02/24,20:10,0.887,1.491,0.930,1.746,1.207,0.487,0.868,0.838,�k,3.9,��
2018/02/24,20:20,0.887,1.493,0.930,1.748,1.204,0.487,0.867,0.836,�k�k��,3.2,��
2018/02/24,20:30,0.886,1.494,0.929,1.749,1.204,0.484,0.867,0.838,�k��,2.9,��
2018/02/24,20:40,0.884,1.492,0.930,1.748,1.206,0.487,0.869,0.835,�k��,2.3,��
2018/02/24,20:50,0.884,1.494,0.930,1.745,1.203,0.488,0.868,0.837,���k��,2.3,��
2018/02/24,21:00,0.884,1.494,0.929,1.747,1.207,0.485,0.867,0.836,�k��,3.1,��
2018/02/24,21:10,0.884,1.495,0.928,1.747,1.205,0.487,0.866,0.836,���k��,2.6,��
2018/02/24,21:20,0.885,1.490,0.929,1.750,1.204,0.486,0.867,0.835,�k��,2.3,��
2018/02/24,21:30,0.885,1.492,0.929,1.746,1.204,0.485,0.868,0.835,�k�k��,3.2,��
2018/02/24,21:40,0.885,1.493,0.928,1.747,1.206,0.485,0.867,0.836,�k�k��,5.7,��
2018/02/24,21:50,0.884,1.491,0.927,1.745,1.205,0.486,0.865,0.834,�k�k��,7.3,��
2018/02/24,22:00,0.883,1.494,0.929,1.748,1.204,0.484,0.866,0.836,�k�k��,7.4,��
2018/02/24,22:10,0.883,1.489,0.928,1.747,1.203,0.485,0.867,0.836,�k�k��,7.4,��
2018/02/24,22:20,0.883,1.489,0.925,1.750,1.204,0.485,0.867,0.835,�k�k��,5.8,��
2018/02/24,22:30,0.883,1.490,0.929,1.747,1.204,0.486,0.865,0.836,�k�k��,4.7,��
2018/02/24,22:40,0.886,1.491,0.927,1.748,1.205,0.485,0.866,0.835,�k�k��,4.9,��
2018/02/24,22:50,0.885,1.494,0.928,1.747,1.206,0.487,0.867,0.834,�k�k��,5.3,��
2018/02/24,23:00,0.885,1.491,0.928,1.745,1.203,0.485,0.866,0.836,�k�k��,6.4,��
2018/02/24,23:10,0.885,1.490,0.929,1.746,1.205,0.486,0.867,0.836,�k�k��,6.8,��
2018/02/24,23:20,0.886,1.490,0.927,1.747,1.205,0.483,0.866,0.834,�k�k��,5.7,��
2018/02/24,23:30,0.883,1.490,0.927,1.744,1.205,0.484,0.867,0.835,�k�k��,5.9,��
2018/02/24,23:40,0.883,1.493,0.928,1.745,1.207,0.485,0.866,0.835,�k��,6.3,��
2018/02/24,23:50,0.884,1.488,0.928,1.743,1.205,0.485,0.866,0.836,�k��,7.4,��
